Temperature
1 -0 -1 -2 -3 -4 -5 -6 -7 -7 -6 -7 -7 -7 -7 -8 -8 -8 -8 -7 -7 -7 -6 -6 -6 -6 -5 -5 -5 -5 -5 -4 -4 -3 -3 -2 -2 -1
0 -1 -2 -3 -4 -5 -6 -6 -7 -8 -8 -7 -7 -7 -8 -8 -8 -8 -8 -8 -8 -7 -7 -7 -7 -6 -6 -6 -6 -5 -5 -5 -4 -4 -4 -3 -3 -2
-1 -2 -3 -4 -5 -5 -6 -7 -7 -8 -9 -8 -8 -8 -8 -8 -8 -8 -8 -8 -8 -8 -8 -7 -7 -7 -7 -7 -6 -6 -6 -5 -5 -5 -4 -4 -3 -3
-2 -3 -4 -5 -6 -6 -7 -7 -8 -8 -9 -9 -9 -8 -8 -8 -8 -8 -8 -8 -9 -9 -8 -8 -8 -8 -7 -7 -7 -7 -6 -6 -6 -5 -5 -5 -4 -4
-3 -4 -5 -6 -6 -7 -8 -8 -8 -9 -9 -9 -9 -9 -9 -8 -8 -9 -9 -9 -9 -9 -9 -9 -9 -8 -8 -8 -7 -7 -7 -7 -7 -6 -6 -6 -5 -5
-4 -5 -6 -7 -7 -8 -8 -8 -9 -9 -9 -9 -9 -9 -9 -9 -9 -9 -9 -10 -10 -10 -10 -9 -9 -9 -9 -9 -9 -8 -8 -8 -8 -7 -7 -7 -6 -6
-6 -6 -7 -7 -8 -9 -9 -9 -9 -9 -9 -9 -8 -9 -9 -9 -10 -10 -10 -10 -10 -10 -10 -10 -10 -10 -10 -9 -9 -9 -9 -9 -8 -8 -8 -7 -7 -6
-7 -7 -7 -8 -8 -9 -9 -9 -9 -8 -8 -9 -9 -9 -10 -10 -10 -10 -10 -10 -10 -10 -10 -10 -10 -10 -10 -10 -10 -10 -9 -9 -8 -8 -8 -7 -7 -6
-7 -8 -8 -8 -9 -9 -9 -9 -9 -9 -9 -9 -10 -10 -10 -10 -10 -10 -10 -10 -11 -11 -11 -11 -10 -10 -10 -10 -10 -10 -9 -9 -8 -8 -8 -7 -7 -7
-8 -8 -8 -9 -9 -9 -9 -9 -9 -9 -10 -10 -10 -10 -10 -10 -10 -11 -11 -11 -11 -11 -11 -11 -11 -11 -10 -10 -9 -9 -9 -9 -8 -8 -8 -7 -7 -7
-8 -9 -9 -10 -10 -9 -9 -9 -10 -9 -10 -10 -10 -10 -10 -10 -10 -11 -11 -12 -12 -11 -10 -11 -11 -11 -11 -10 -9 -9 -9 -9 -8 -8 -8 -7 -7 -7
-9 -9 -10 -10 -10 -9 -9 -10 -10 -10 -10 -10 -10 -9 -9 -9 -9 -10 -11 -12 -12 -12 -10 -11 -11 -11 -11 -9 -8 -8 -8 -7 -7 -8 -7 -7 -7 -7
-9 -9 -10 -10 -10 -10 -10 -10 -10 -10 -10 -10 -9 -9 -9 -9 -9 -9 -10 -11 -12 -12 -10 -11 -11 -11 -11 -10 -8 -7 -7 -7 -7 -6 -6 -6 -7 -7
-10 -10 -10 -10 -10 -10 -10 -10 -11 -11 -10 -10 -10 -10 -9 -9 -8 -8 -8 -9 -9 -10 -9 -10 -10 -10 -11 -10 -9 -6 -5 -6 -6 -5 -5 -5 -6 -6
-10 -10 -10 -10 -10 -9 -9 -10 -10 -10 -11 -11 -11 -10 -9 -9 -8 -8 -8 -8 -7 -7 -8 -9 -9 -9 -9 -9 -9 -7 -6 -5 -4 -4 -4 -4 -5 -6
-10 -10 -10 -10 -9 -9 -9 -9 -10 -10 -11 -11 -11 -10 -9 -8 -8 -8 -8 -8 -8 -6 -6 -7 -8 -8 -8 -6 -6 -6 -6 -6 -4 -4 -4 -4 -4 -5
-11 -10 -10 -10 -10 -10 -10 -10 -10 -10 -10 -10 -10 -9 -9 -9 -8 -8 -8 -8 -9 -9 -7 -6 -6 -6 -6 -5 -5 -5 -5 -4 -3 -3 -3 -3 -3 -4
-11 -10 -10 -10 -10 -11 -10 -10 -10 -9 -9 -9 -9 -9 -9 -9 -8 -8 -8 -8 -9 -9 -8 -7 -7 -5 -4 -3 -4 -5 -4 -4 -3 -3 -2 -2 -2 -3
-10 -10 -10 -11 -11 -11 -10 -10 -10 -9 -9 -9 -9 -9 -9 -9 -8 -8 -8 -8 -8 -8 -8 -7 -7 -7 -8 -7 -4 -4 -4 -4 -3 -3 -2 -2 -1 -1
-10 -11 -11 -11 -11 -10 -10 -10 -9 -9 -8 -8 -8 -8 -8 -8 -8 -8 -8 -8 -9 -8 -7 -7 -6 -6 -7 -6 -5 -5 -4 -4 -3 -3 -2 -2 -1 -1
-11 -11 -11 -10 -10 -10 -10 -9 -9 -8 -8 -8 -8 -8 -8 -8 -8 -8 -8 -8 -8 -8 -8 -7 -6 -6 -5 -5 -5 -5 -4 -4 -4 -3 -2 -2 -2 -2
-11 -11 -10 -10 -10 -10 -9 -9 -8 -8 -8 -8 -8 -8 -8 -8 -8 -8 -8 -8 -8 -8 -7 -7 -6 -5 -5 -5 -5 -5 -5 -4 -4 -3 -3 -3 -2 -2
-11 -10 -10 -9 -9 -9 -9 -8 -8 -8 -7 -8 -7 -7 -7 -7 -7 -8 -8 -8 -8 -7 -7 -6 -6 -5 -5 -5 -5 -5 -5 -5 -5 -4 -4 -3 -3 -2
Wind_Speed
4 5 5 5 5 6 5 5 7 14 18 6 4 4 7 13 19 19 18 28 33 35 35 35 35 35 35 35 36 36 36 36 35 35 35 35 35 35
4 6 6 6 6 6 6 7 7 12 17 9 11 10 10 13 22 21 20 31 32 33 34 34 35 36 37 37 37 37 36 36 36 36 36 36 36 36
6 6 8 8 6 6 6 7 8 10 17 18 13 11 11 12 14 14 18 16 19 30 33 35 37 37 37 37 36 36 36 36 36 36 35 35 36 36
8 7 8 8 8 7 7 9 9 10 14 20 18 14 14 13 14 13 14 15 11 27 34 35 36 36 35 35 35 35 35 35 35 35 35 35 35 35
7 7 8 9 9 9 9 10 10 11 11 16 19 16 14 13 13 14 13 12 16 22 28 30 32 34 35 35 36 36 36 35 35 35 35 35 35 35
6 7 8 9 11 11 11 10 10 11 12 14 16 15 14 12 11 14 16 11 13 15 21 24 28 33 34 35 35 35 35 35 35 35 35 35 35 35
7 8 9 14 17 15 14 12 12 13 14 14 16 16 15 14 15 14 18 17 14 12 13 14 15 15 17 26 30 32 34 34 34 34 34 35 35 35
9 9 10 12 17 22 26 25 23 19 17 15 15 16 18 16 16 17 18 19 18 8 10 16 13 16 15 13 26 33 34 34 35 35 35 35 35 35
9 10 12 13 18 13 20 24 21 23 23 17 17 17 18 18 19 20 18 19 20 16 16 19 14 16 15 18 31 34 35 35 35 35 35 35 35 35
10 10 12 12 14 18 16 15 12 12 18 15 13 15 16 15 16 18 18 19 18 14 13 18 17 17 18 16 28 33 34 34 34 34 34 35 35 35
10 10 12 11 22 27 18 15 14 13 19 22 24 24 28 27 22 15 15 15 17 16 11 11 15 17 18 17 20 28 30 31 32 33 33 34 34 33
8 8 16 20 25 27 16 12 15 16 16 16 17 19 17 18 22 14 13 14 16 12 6 7 13 13 11 9 9 12 17 25 30 32 33 33 33 22
10 8 10 24 27 27 23 12 18 20 13 13 14 13 13 11 12 12 12 13 15 15 14 12 14 13 11 13 15 14 14 14 16 19 25 30 31 26
11 10 13 26 27 25 19 20 25 20 11 12 13 13 13 13 13 15 16 15 15 19 19 18 14 15 16 18 15 12 12 13 14 15 14 20 23 27
11 20 24 25 23 16 19 23 19 11 12 12 13 13 11 13 14 13 14 14 16 15 15 16 16 15 15 16 14 16 16 14 12 12 12 11 11 11
12 16 21 21 17 17 16 14 11 11 12 12 13 13 12 11 12 12 14 14 14 14 12 12 13 15 15 16 15 16 15 10 12 13 10 8 7 8
15 8 8 10 10 11 11 11 11 11 12 12 12 13 14 13 13 11 11 13 12 14 16 14 11 11 14 14 12 13 14 14 13 12 9 5 4 6
14 9 10 11 11 12 13 13 13 12 12 12 12 12 13 13 14 13 12 12 13 14 14 14 15 13 9 6 9 10 11 12 12 11 8 5 3 3
9 9 10 11 11 12 12 13 13 13 12 12 12 12 12 12 13 13 13 12 13 13 13 12 12 9 12 12 8 10 13 13 13 10 9 7 5 2
8 9 11 11 12 12 12 13 13 13 12 12 12 12 11 12 12 12 12 13 14 13 13 12 10 11 10 9 7 9 18 16 12 12 12 8 8 7
10 10 11 11 12 12 12 13 13 13 13 13 12 12 11 11 12 12 12 17 14 11 12 12 13 18 10 7 7 10 12 19 20 14 14 11 9 11
11 12 12 12 12 12 12 12 13 13 13 12 12 12 11 11 12 13 12 12 11 10 11 10 11 10 6 7 9 10 13 14 16 22 26 23 12 10
12 12 12 12 12 12 12 13 14 14 13 12 12 12 12 12 11 11 11 10 9 10 9 9 8 7 6 6 8 9 14 15 13 14 15 25 28 27
Wind_Direction
279 271 259 258 255 255 257 266 290 307 311 283 267 261 273 282 288 292 286 293 296 295 295 294 294 292 290 289 287 285 283 281 278 275 272 269 266 263
279 274 270 265 262 259 256 258 259 280 294 292 297 292 284 293 296 295 289 293 295 294 292 291 291 291 290 288 286 284 282 280 277 275 272 269 266 263
297 290 281 278 273 266 261 262 264 268 286 297 297 296 288 286 291 283 282 279 281 287 290 291 291 290 289 287 286 285 283 281 278 276 274 271 268 265
297 296 291 294 282 276 271 269 270 267 279 293 300 302 295 291 290 286 295 292 284 289 291 291 291 291 290 289 287 285 283 281 279 277 274 272 269 267
295 296 293 291 288 283 277 277 276 282 281 290 296 298 297 296 296 296 291 286 288 291 292 292 291 290 289 288 287 286 285 282 280 277 274 272 270 267
295 290 288 287 285 283 287 279 287 292 290 290 293 297 299 298 300 304 303 292 291 292 290 288 288 290 288 288 287 286 284 282 279 276 273 270 267 264
292 286 287 300 304 305 306 306 303 298 297 297 300 303 305 308 307 305 303 302 292 285 286 286 285 282 282 282 282 281 280 278 276 273 270 267 264 261
297 294 293 297 302 311 311 307 304 303 305 304 306 304 303 303 304 303 304 303 301 293 288 294 288 285 282 276 279 280 279 278 275 272 269 266 263 260
293 296 304 307 312 298 298 303 304 305 306 304 300 298 299 302 303 303 302 300 298 301 301 296 292 288 286 282 284 282 281 279 277 274 270 266 263 259
286 288 292 295 300 306 305 309 304 300 299 299 291 293 297 299 299 301 300 299 295 292 290 293 295 292 291 284 284 281 280 279 276 273 270 266 262 257
290 291 301 301 305 313 317 312 308 306 309 306 305 305 306 307 307 306 305 304 302 302 295 286 292 298 293 286 280 281 280 280 278 275 272 268 262 257
297 291 307 313 313 319 320 315 314 311 311 313 312 308 303 300 305 304 301 300 301 302 289 286 297 308 302 276 269 279 281 280 279 276 272 268 263 257
314 309 305 315 319 322 324 318 309 315 320 316 310 306 305 304 305 303 298 294 294 291 294 301 297 296 288 295 298 290 281 279 280 276 272 267 261 253
314 311 312 319 324 325 323 316 319 325 319 311 309 309 311 309 308 305 299 293 284 284 288 290 289 291 294 294 297 297 294 288 282 277 269 264 260 252
311 315 319 323 326 324 317 320 325 320 312 311 311 309 306 301 303 305 304 300 293 286 282 279 282 287 287 288 288 293 302 302 289 280 274 263 249 239
312 315 323 323 322 318 319 319 316 310 313 310 308 306 306 306 308 310 312 315 314 309 297 282 280 288 293 289 287 291 298 296 300 301 290 270 242 221
325 324 323 321 322 320 318 317 316 316 315 311 309 310 311 311 311 313 310 313 312 313 319 320 311 299 286 281 287 295 305 310 309 312 309 291 242 215
332 324 320 319 318 318 318 317 316 315 313 311 309 307 308 310 311 312 313 313 314 314 316 320 327 329 326 294 258 297 319 324 328 329 334 322 311 221
329 316 314 314 313 312 311 311 310 310 309 307 306 306 307 307 308 311 314 316 315 315 316 319 325 330 331 330 316 318 335 340 343 348 349 349 352 351
318 313 312 311 310 309 309 308 308 309 309 307 306 304 305 306 307 309 311 313 315 317 321 324 328 330 324 315 312 320 338 354 356 0 1 1 13 25
318 313 310 308 306 306 305 305 304 304 304 305 304 303 304 305 304 305 307 311 316 318 322 324 320 323 318 321 333 349 352 356 9 19 12 13 19 29
314 311 308 305 305 304 304 304 304 304 304 303 302 303 302 301 301 303 305 310 312 315 316 315 320 331 344 355 356 354 358 360 6 19 31 36 38 33
311 309 306 305 303 302 302 302 301 301 301 300 300 301 301 302 301 300 302 305 309 316 321 326 334 343 346 351 359 3 4 7 10 20 29 30 40 47
Height
1465 1462 1459 1455 1452 1448 1444 1440 1433 1417 1403 1400 1399 1397 1395 1391 1387 1384 1379 1374 1370 1365 1360 1356 1351 1347 1343 1340 1336 1333 1331 1328 1327 1326 1325 1325 1325 1326
1460 1457 1453 1449 1446 1442 1438 1435 1430 1421 1406 1394 1392 1388 1385 1383 1380 1376 1370 1365 1360 1355 1350 1345 1340 1336 1331 1327 1324 1320 1317 1315 1313 1312 1311 1311 1311 1312
1455 1451 1447 1443 1439 1435 1431 1427 1422 1416 1404 1390 1386 1382 1377 1373 1368 1364 1360 1355 1349 1344 1340 1334 1329 1324 1319 1315 1311 1307 1304 1302 1300 1298 1297 1297 1297 1298
1449 1444 1440 1436 1432 1428 1423 1418 1414 1409 1401 1389 1379 1374 1369 1365 1359 1354 1350 1346 1340 1334 1329 1323 1317 1312 1307 1302 1298 1294 1291 1289 1286 1285 1284 1284 1284 1284
1442 1438 1434 1429 1424 1420 1415 1411 1406 1401 1396 1387 1376 1369 1362 1357 1351 1345 1340 1334 1329 1323 1317 1311 1306 1300 1295 1290 1286 1282 1278 1275 1273 1271 1270 1270 1270 1270
1437 1433 1428 1423 1418 1413 1408 1404 1399 1393 1387 1380 1371 1363 1357 1351 1345 1337 1328 1322 1317 1312 1306 1300 1295 1289 1282 1277 1272 1268 1264 1261 1258 1257 1256 1256 1256 1257
1431 1427 1422 1417 1413 1408 1404 1398 1392 1386 1379 1372 1364 1357 1350 1344 1337 1330 1321 1313 1305 1302 1294 1287 1282 1274 1268 1262 1257 1253 1249 1247 1244 1243 1241 1241 1241 1242
1424 1420 1415 1411 1406 1402 1397 1391 1387 1381 1373 1366 1358 1351 1343 1337 1330 1323 1315 1306 1294 1291 1286 1276 1272 1263 1256 1250 1245 1240 1237 1234 1231 1229 1228 1227 1227 1227
1419 1414 1409 1404 1400 1393 1387 1383 1378 1373 1369 1362 1352 1344 1337 1331 1324 1316 1309 1301 1291 1284 1278 1266 1260 1252 1245 1238 1233 1228 1224 1220 1217 1215 1213 1212 1212 1212
1414 1409 1403 1397 1392 1386 1381 1375 1369 1364 1359 1352 1346 1339 1332 1325 1319 1312 1303 1293 1283 1277 1273 1261 1250 1242 1233 1225 1219 1214 1210 1206 1203 1200 1198 1197 1197 1197
1408 1403 1398 1392 1386 1381 1375 1368 1360 1354 1349 1344 1339 1332 1325 1318 1312 1305 1296 1288 1276 1267 1264 1255 1243 1233 1221 1212 1206 1202 1197 1193 1189 1185 1182 1181 1181 1182
1401 1397 1392 1387 1381 1375 1369 1361 1353 1346 1341 1334 1328 1323 1316 1310 1305 1299 1291 1283 1273 1261 1254 1249 1238 1230 1212 1199 1196 1191 1184 1179 1174 1170 1166 1164 1164 1165
1396 1390 1385 1380 1375 1369 1363 1355 1348 1343 1336 1328 1321 1314 1309 1303 1298 1292 1286 1279 1269 1259 1251 1245 1235 1227 1220 1201 1187 1182 1176 1168 1161 1155 1151 1148 1147 1148
1390 1384 1378 1374 1368 1361 1355 1349 1344 1337 1330 1322 1315 1309 1303 1296 1290 1284 1278 1271 1264 1255 1246 1240 1232 1223 1213 1201 1187 1174 1167 1160 1152 1145 1139 1134 1132 1132
1385 1380 1374 1368 1361 1355 1349 1344 1338 1331 1324 1318 1311 1305 1298 1292 1285 1278 1271 1263 1256 1249 1241 1234 1227 1218 1210 1199 1186 1173 1162 1151 1145 1138 1131 1125 1121 1120
1379 1373 1368 1362 1356 1350 1345 1339 1333 1327 1322 1315 1308 1301 1294 1287 1280 1273 1265 1257 1247 1239 1235 1229 1221 1213 1204 1194 1184 1172 1162 1152 1141 1133 1125 1119 1114 1112
1374 1368 1362 1356 1350 1345 1339 1334 1329 1323 1317 1311 1304 1297 1290 1283 1276 1270 1262 1254 1246 1237 1228 1221 1216 1209 1201 1192 1181 1171 1161 1151 1141 1132 1124 1117 1112 1109
1370 1363 1358 1352 1346 1341 1335 1329 1324 1319 1313 1307 1300 1294 1287 1280 1272 1266 1260 1253 1245 1237 1229 1221 1213 1204 1197 1189 1183 1173 1163 1153 1142 1134 1125 1118 1113 1110
1366 1360 1354 1349 1343 1338 1332 1326 1320 1315 1309 1303 1297 1290 1284 1277 1270 1263 1257 1251 1244 1237 1230 1223 1216 1208 1201 1192 1184 1177 1168 1157 1146 1137 1129 1123 1117 1113
1362 1356 1351 1345 1340 1334 1329 1323 1317 1311 1305 1299 1293 1287 1281 1274 1268 1262 1256 1250 1243 1237 1230 1223 1217 1211 1205 1198 1190 1181 1173 1164 1153 1144 1136 1129 1124 1121
1357 1352 1347 1342 1336 1331 1325 1319 1313 1307 1301 1295 1290 1284 1278 1272 1266 1260 1255 1249 1244 1238 1231 1225 1219 1214 1208 1202 1195 1187 1179 1171 1163 1155 1146 1138 1134 1130
1354 1348 1343 1338 1333 1327 1321 1315 1309 1303 1298 1292 1287 1281 1275 1270 1264 1259 1254 1249 1243 1239 1233 1227 1222 1216 1211 1205 1200 1193 1186 1178 1171 1165 1158 1153 1148 1143
1350 1345 1340 1335 1329 1323 1317 1311 1306 1300 1295 1289 1283 1278 1273 1268 1263 1258 1253 1249 1244 1239 1234 1229 1224 1220 1215 1211 1206 1200 1193 1187 1180 1174 1169 1165 1160 1156